SCP
7 9 13 15 14 15 18 20 19 17 14 11 9 7 7 7 7 7 8 8 7 5 5 5 4 4 3 3 2 2 2 2 2 1 1 1 2 2 2 2 2 2 1
7 9 13 14 12 12 14 16 16 14 12 10 9 8 7 7 7 8 8 8 7 6 5 5 4 3 3 3 2 2 2 2 2 1 1 1 1 1 1 2 2 1 1
6 9 12 12 10 10 10 10 11 11 10 9 8 8 8 7 7 8 9 9 8 6 5 4 4 3 3 2 2 2 2 1 1 1 1 1 1 1 1 1 1 1 1
5 7 10 10 9 9 8 8 8 9 8 8 8 8 7 7 7 8 9 8 6 4 4 4 4 4 3 2 2 2 1 1 1 1 1 1 1 1 1 1 1 1 1
5 6 8 8 8 7 7 7 7 7 8 8 8 7 6 6 7 8 6 4 2 2 3 3 3 3 2 2 2 1 1 1 0 0 0 0 0 0 0 1 1 1 0
4 5 6 6 5 5 5 5 5 6 7 8 7 6 5 6 6 5 3 1 0 0 1 1 1 1 1 1 1 1 0 0 0 0 0 0 0 0 0 0 0 0 0
3 3 3 3 3 3 3 3 4 5 6 7 7 5 5 5 5 2 1 0 0 0 0 0 0 0 0 0 0 0 0 0 0 0 0 0 0 0 0 0 0 0 0
2 2 2 2 1 2 2 2 3 3 5 6 7 6 6 5 3 1 0 0 0 0 0 0 0 0 0 0 0 0 0 0 0 0 0 0 0 0 0 0 0 0 0
2 2 1 1 1 1 1 1 2 3 5 7 7 6 5 3 1 0 0 0 0 0 0 0 0 0 0 0 0 0 0 0 0 0 0 0 0 0 0 0 0 0 0
2 2 1 0 0 0 0 0 1 2 4 5 5 4 2 1 0 0 0 0 0 0 0 0 0 0 0 0 0 0 0 0 0 0 0 0 0 0 0 0 0 0 0
2 1 1 0 0 0 0 0 0 1 2 2 2 1 0 0 0 0 0 0 0 0 0 0 0 0 0 0 0 0 0 0 0 0 0 0 0 0 0 0 0 0 0
1 1 0 0 0 0 0 0 0 0 0 0 0 0 0 0 0 0 0 0 0 0 0 0 0 0 0 0 0 0 0 0 0 0 0 0 0 0 0 0 0 0 0
1 0 0 0 0 0 0 0 0 0 0 0 0 0 0 0 0 0 0 0 0 0 0 0 0 0 0 0 0 0 0 0 0 0 0 0 0 0 0 0 0 0 0
0 0 0 0 0 0 0 0 0 0 0 0 0 0 0 0 0 0 0 0 0 0 0 0 0 0 0 0 0 0 0 0 0 0 0 0 0 0 0 0 0 0 0
0 0 0 0 0 0 0 0 0 0 0 0 0 0 0 0 0 0 0 0 0 0 0 0 0 0 0 0 0 0 0 0 0 0 0 0 0 0 0 0 0 0 0
0 0 0 0 0 0 0 0 0 0 0 0 0 0 0 0 0 0 0 0 0 0 0 0 0 0 0 0 0 0 0 0 0 0 0 0 0 0 0 0 0 0 0
0 0 0 0 0 0 0 0 0 0 0 0 0 0 0 0 0 0 0 0 0 0 0 0 0 0 0 0 0 0 0 0 0 0 0 0 0 0 0 0 0 0 0
0 0 0 0 0 0 0 0 0 0 0 0 0 0 0 0 0 0 0 0 0 0 0 0 0 0 0 0 0 0 0 0 0 0 0 0 0 0 0 0 0 0 0
0 0 0 0 0 0 0 0 0 0 0 0 0 0 0 0 0 0 0 0 0 0 0 0 0 0 0 0 0 0 0 0 0 0 0 0 0 0 0 0 0 0 0
0 0 0 0 0 0 0 0 0 0 0 0 0 0 0 0 0 0 0 0 0 0 0 0 0 0 0 0 0 0 0 0 0 0 0 0 0 0 0 0 0 0 0
0 0 0 0 0 0 0 1 1 1 0 0 0 0 0 0 0 0 0 0 0 0 0 0 0 0 0 0 0 0 0 0 0 0 0 0 0 0 0 0 0 0 0
0 0 0 0 0 0 0 1 1 0 0 0 0 0 0 0 0 0 0 0 0 0 0 0 0 0 0 0 0 0 0 0 0 0 0 0 0 0 0 0 0 0 0
0 0 0 0 0 0 0 0 0 0 0 0 0 0 0 0 0 0 0 0 0 0 0 0 0 0 0 0 0 0 0 0 0 0 0 0 0 0 0 0 0 0 0
0 0 0 0 0 0 0 0 0 0 0 0 0 0 0 0 0 0 0 0 0 0 0 0 0 0 0 0 0 0 0 0 0 0 0 0 0 0 0 0 0 0 0
0 0 0 0 0 0 0 0 0 0 0 0 0 0 0 0 0 0 0 0 0 0 0 0 0 0 0 0 0 0 0 0 0 0 0 0 0 0 0 0 0 0 0
0 0 0 0 0 0 0 0 0 0 0 0 0 0 0 0 0 0 0 0 0 0 0 0 0 0 0 0 0 0 0 0 0 0 0 0 0 0 0 0 0 0 0
Wind_Speed
7 9 10 9 9 9 8 7 6 5 4 3 3 3 3 3 3 4 5 5 4 3 2 1 1 2 2 2 2 2 3 2 2 2 2 3 5 5 5 5 6 6 7
8 9 10 10 10 9 8 7 6 5 4 2 2 3 4 4 4 5 6 6 5 4 2 2 2 2 2 3 2 1 2 2 1 1 2 3 2 4 5 5 5 6 5
8 8 9 10 9 9 8 7 6 6 5 3 3 4 4 4 4 5 5 7 7 6 5 5 4 3 3 4 4 3 3 2 2 3 1 1 2 4 3 4 5 5 4
9 9 10 10 10 9 8 8 8 8 6 4 5 6 5 5 5 5 7 8 10 9 8 7 7 6 6 5 5 5 4 3 3 2 3 3 2 3 3 2 3 4 5
10 11 11 10 9 9 9 9 10 10 9 7 7 7 7 7 6 7 10 9 9 10 10 9 8 8 7 8 8 7 7 5 4 3 2 2 3 3 3 3 3 2 3
11 11 11 10 10 10 9 9 10 10 10 10 10 10 10 10 10 9 9 7 7 8 10 10 9 8 8 9 9 8 10 7 7 6 5 4 3 2 2 2 3 3 3
10 10 11 11 10 11 10 9 11 11 11 11 11 11 11 11 11 9 8 8 7 7 9 8 8 7 8 8 8 8 8 8 7 6 5 5 4 3 2 2 2 2 3
10 11 11 10 10 10 10 10 11 11 11 12 12 11 10 9 8 9 8 8 7 7 7 8 8 8 8 8 7 7 6 6 6 7 6 4 4 4 4 3 2 1 2
11 11 11 10 11 11 11 10 11 12 11 12 12 12 11 11 10 9 9 8 7 7 8 8 7 7 7 7 7 6 7 7 6 6 6 4 3 4 3 3 3 2 1
11 11 10 10 10 10 11 11 12 12 12 11 11 11 11 10 10 10 10 9 8 7 7 7 7 7 7 7 6 6 6 6 5 5 6 6 5 4 3 3 3 4 3
11 10 10 10 10 10 10 11 11 12 12 12 11 11 10 10 10 9 9 8 7 7 7 6 6 7 7 6 6 6 6 6 6 6 6 5 5 5 5 4 4 4 4
10 10 10 10 10 10 10 11 11 11 11 11 10 10 9 9 9 8 7 7 6 6 6 6 6 6 6 5 5 6 6 6 6 6 6 6 5 5 4 4 4 3 2
11 10 10 10 10 10 10 10 10 10 10 10 10 9 8 8 8 7 6 6 5 5 6 6 7 6 6 6 6 6 6 6 6 6 6 6 6 6 5 4 4 3 4
11 10 10 10 10 10 10 10 10 9 9 10 10 9 7 7 6 6 5 5 6 6 6 6 7 7 8 8 7 6 6 5 5 5 5 6 6 5 5 4 5 5 4
11 11 10 10 9 10 9 9 9 8 9 9 9 8 7 6 6 6 6 5 5 7 5 6 7 7 8 8 8 5 5 4 4 4 4 5 5 3 3 4 4 5 4
12 12 11 10 10 9 9 9 8 7 7 8 8 7 6 6 6 6 6 5 5 6 6 7 8 8 7 8 11 9 5 4 4 4 3 4 3 1 2 3 4 3 3
13 12 11 10 9 9 8 9 8 7 7 7 7 7 6 6 6 7 6 6 6 6 5 6 7 7 7 9 10 11 6 3 3 3 4 4 6 7 6 5 5 5 7
13 11 10 9 8 8 8 7 7 7 7 6 6 6 6 7 6 6 6 5 4 4 4 5 6 6 6 8 9 11 5 0 2 3 4 5 6 7 7 7 6 3 1
12 10 9 9 8 7 7 7 7 7 7 6 6 6 7 7 6 6 5 4 4 4 4 4 5 6 5 6 8 9 4 1 3 5 6 6 5 7 9 6 6 5 5
10 9 8 9 8 7 7 7 6 6 6 6 6 6 6 6 6 5 4 3 3 3 4 5 5 5 5 5 8 10 4 3 3 4 5 7 6 6 8 5 5 5 5
12 10 9 8 7 6 6 6 6 6 6 6 6 6 5 5 5 4 3 2 3 3 4 4 4 5 4 3 5 7 5 5 4 3 3 3 4 6 7 6 4 4 6
12 10 9 8 7 6 7 7 6 6 6 6 6 5 3 4 5 4 3 2 2 2 2 3 4 4 3 3 2 4 4 5 4 3 3 1 4 6 8 6 7 10 9
11 9 10 9 7 6 6 7 6 5 5 5 5 4 4 3 3 3 2 1 1 1 2 2 3 3 3 2 2 3 4 5 3 3 5 6 7 8 6 7 9 8 4
11 9 9 9 8 7 7 6 6 5 6 6 5 4 4 3 2 2 2 3 3 3 3 3 3 4 4 4 4 3 2 3 2 4 6 8 9 8 8 7 4 3 2
9 9 9 9 9 8 7 7 6 5 5 5 4 4 4 4 4 6 6 6 6 5 5 5 5 4 4 3 3 4 4 5 6 7 5 3 2 2 2 2 2 2 2
10 9 9 9 9 8 8 7 6 6 5 4 3 3 3 3 3 5 6 9 7 7 8 7 5 4 4 1 2 5 7 8 9 6 4 3 3 3 3 3 3 3 3
Wind_Direction
71 67 61 54 50 42 45 45 48 58 83 115 125 119 117 90 79 71 62 56 57 63 80 83 117 134 137 131 136 143 132 111 107 113 99 71 61 61 53 56 66 66 67
69 68 62 54 49 41 40 45 40 43 68 88 116 115 107 91 83 76 65 58 59 62 77 62 70 87 104 96 87 105 133 123 96 148 153 141 114 66 57 59 66 65 64
68 69 64 55 50 44 37 36 40 41 55 78 105 108 99 89 77 74 64 49 52 54 57 61 61 64 77 80 70 55 83 114 89 43 47 129 142 121 73 59 65 66 67
72 71 67 56 48 43 43 41 46 48 53 71 95 104 101 95 77 75 71 59 52 51 49 57 62 65 67 68 65 56 57 75 94 79 58 60 71 120 124 94 76 79 74
79 68 61 58 52 49 47 47 50 52 52 61 77 87 88 89 86 81 74 65 56 53 52 54 60 64 65 64 60 56 53 55 59 63 70 69 61 56 109 129 137 117 99
82 74 67 62 55 52 52 55 58 57 57 63 71 81 91 92 90 84 81 72 65 58 56 59 60 61 64 66 64 61 59 57 56 52 49 53 56 49 61 105 138 132 127
86 75 65 60 57 54 52 59 64 63 64 69 72 79 84 86 87 88 83 80 71 64 57 61 62 63 67 70 71 69 64 58 58 54 49 50 43 35 37 76 101 121 138
85 76 68 65 62 58 58 64 66 66 69 73 74 75 79 82 81 80 83 80 77 74 69 67 68 67 69 72 71 72 71 66 63 57 48 52 39 33 36 41 49 77 126
88 81 73 69 67 64 63 68 73 73 74 77 79 77 77 81 84 83 81 81 83 82 74 69 68 67 68 70 71 69 65 61 56 52 46 47 46 36 29 30 32 28 60
95 88 81 76 74 73 73 72 76 78 80 81 82 84 81 82 83 83 81 81 80 81 81 76 73 70 67 67 72 75 72 76 71 65 50 38 26 27 27 25 28 29 30
101 97 92 89 86 83 82 80 80 81 81 82 82 83 83 84 85 84 83 82 80 79 81 81 79 76 71 68 73 79 72 71 66 66 67 61 42 24 22 19 35 37 31
107 104 101 98 95 91 89 87 87 88 88 88 87 86 85 85 85 85 83 85 85 83 83 79 78 81 77 69 69 75 75 72 69 62 56 48 47 39 28 12 31 37 30
116 111 106 101 99 98 97 95 95 96 98 98 96 93 90 88 88 87 85 83 82 81 80 76 71 69 67 66 67 68 67 69 66 60 57 53 44 33 19 17 19 9 15
123 117 110 106 104 105 106 106 105 105 105 102 100 95 90 90 91 90 87 85 83 78 75 76 74 67 56 47 44 65 69 69 72 68 65 61 51 34 1 17 20 6 348
130 125 121 117 114 111 110 110 109 109 110 108 103 101 101 99 95 91 87 86 87 86 78 77 76 72 61 38 26 21 72 66 69 71 77 87 84 60 5 16 2 358 351
137 131 126 123 121 119 116 114 110 111 111 110 110 111 110 106 102 98 93 89 83 81 79 75 73 65 57 34 29 22 16 46 54 48 48 116 112 67 308 303 305 306 329
138 133 131 128 127 125 123 122 121 118 112 110 111 111 108 104 100 100 96 90 86 84 83 85 84 78 54 32 22 14 348 30 56 40 22 41 59 35 10 341 296 268 248
137 134 133 130 127 128 127 127 127 123 120 114 109 109 104 100 96 94 94 94 92 92 89 89 93 89 62 32 16 354 323 360 83 67 49 52 58 31 6 338 339 332 275
136 132 131 129 132 136 137 134 126 123 118 108 102 101 103 102 100 98 97 97 101 105 101 93 94 94 75 32 15 355 318 53 79 77 58 45 59 26 5 348 354 6 5
131 132 133 130 134 139 136 129 126 121 112 107 103 101 101 100 98 96 99 102 106 109 106 94 90 92 83 41 21 2 357 31 59 98 95 64 42 16 8 355 353 358 346
135 136 135 133 135 137 130 124 119 113 109 107 107 107 104 104 103 100 102 109 99 95 100 109 104 97 93 81 32 22 14 7 16 66 83 64 12 358 347 333 319 325 311
139 137 135 132 132 132 129 122 117 116 112 110 109 110 112 113 111 108 103 105 118 124 122 126 123 119 116 86 55 19 17 356 3 31 43 31 327 325 317 310 307 316 314
140 138 136 134 136 135 130 127 127 124 119 116 113 107 101 96 112 124 122 123 129 144 137 134 131 127 121 105 2 319 318 334 338 349 324 300 291 298 289 264 286 304 311
139 138 138 135 132 131 129 127 127 127 126 123 120 121 118 110 99 80 74 60 43 41 50 60 84 93 77 51 20 357 5 331 339 330 300 279 273 269 276 288 274 257 298
139 142 140 136 136 136 133 130 126 126 126 127 131 129 112 100 85 74 54 60 56 50 45 41 48 62 72 49 7 353 359 354 358 331 305 289 304 334 348 337 338 346 2
143 141 139 138 139 138 135 134 135 136 139 146 153 145 142 141 127 117 97 61 79 81 74 66 63 77 89 130 334 331 325 325 335 331 316 350 10 4 356 349 355 12 21